ECMWFFLT1_500_rhum_036.txt.gz
RH
49 58 63 69 80 86 88 91 88 82 78 74 71 71 70 67 64 61 59 56 50 41 33 26 20 16 14 14 16 19 21 24 30 39 46 48 52 54 53 51 48 45 43 48 67 88 100 99 99 103 101 98 101 95 83 88 98 101 98 93 91 93 91
49 57 64 74 85 90 89 90 90 92 92 86 79 75 72 70 67 65 66 66 66 60 51 42 32 24 20 18 18 19 21 24 28 35 45 51 53 55 56 56 52 48 46 44 50 69 92 102 100 101 103 100 101 102 98 97 100 102 101 99 98 97 96
51 58 67 79 86 86 87 92 99 104 103 95 89 82 76 75 74 74 75 75 77 78 73 65 54 42 33 25 21 20 21 23 28 33 40 49 56 57 56 58 57 52 48 46 47 54 71 87 95 99 102 103 102 101 101 102 101 101 101 101 101 99 99
51 58 68 80 85 88 95 101 104 104 100 96 92 84 79 81 82 84 87 87 89 92 92 88 80 69 57 42 29 23 22 22 25 31 37 43 51 58 59 59 59 57 52 48 51 58 65 67 69 75 83 93 100 102 102 102 102 101 98 98 100 102 103
49 58 69 80 88 97 104 103 99 95 91 89 87 83 80 82 86 91 95 98 100 100 100 98 94 88 79 63 46 34 27 23 22 26 32 38 44 51 57 60 61 60 57 52 49 59 78 84 75 65 61 62 67 74 79 83 90 94 90 82 83 91 96
49 60 72 84 96 104 100 92 87 86 85 84 84 83 81 81 86 92 98 101 103 104 104 104 103 99 91 78 65 52 42 33 27 23 25 30 37 43 49 54 59 60 60 59 53 50 66 90 99 92 82 74 68 68 68 67 70 75 68 58 59 69 81
52 62 76 90 99 98 90 87 89 91 90 87 85 85 84 83 85 89 94 98 102 105 104 101 100 95 87 79 72 64 57 48 37 28 23 23 27 34 40 45 51 56 57 59 60 55 53 68 89 101 101 98 94 93 90 83 76 70 58 51 56 70 85
56 65 79 92 97 95 93 97 102 102 96 90 88 88 86 84 85 87 89 93 101 105 100 94 93 89 82 76 70 64 61 57 48 38 29 25 23 24 29 34 40 47 52 54 57 58 55 56 71 89 99 102 101 100 101 98 93 86 73 61 60 73 91
60 69 81 90 95 100 102 104 106 104 97 91 88 87 85 81 82 86 89 92 97 100 98 97 98 94 86 75 65 61 60 58 55 47 38 32 28 24 22 25 29 33 41 47 51 54 56 54 58 70 86 97 101 100 100 99 99 99 95 88 79 78 89
64 72 80 85 90 98 104 105 106 102 96 92 89 87 84 80 79 86 93 96 98 99 101 104 104 100 91 76 66 64 63 60 58 53 47 41 36 31 25 22 22 24 27 34 40 45 51 53 53 56 65 77 89 98 102 102 101 99 100 103 99 92 92
67 72 75 76 82 91 100 103 103 100 96 94 91 88 86 83 81 86 93 99 101 102 104 107 106 101 93 82 74 71 68 64 61 58 56 53 47 41 34 26 22 20 20 22 27 33 38 45 49 51 53 57 65 77 88 96 101 102 101 102 101 97 93
70 71 71 71 76 86 95 99 98 95 93 92 93 91 89 86 83 83 88 96 101 102 104 107 106 101 95 88 83 80 75 73 72 69 66 61 55 49 42 34 28 23 20 19 19 22 26 31 38 44 48 49 50 53 60 69 80 90 95 97 96 95 93
75 74 72 73 79 87 94 98 98 96 91 89 93 97 97 94 90 85 84 89 95 100 103 106 105 102 99 96 91 87 85 85 86 87 83 73 66 60 51 43 36 30 25 22 19 18 19 21 26 32 38 44 48 48 48 51 57 65 72 75 77 80 84
81 80 78 80 86 91 94 96 98 98 94 90 93 100 104 104 100 93 88 85 87 91 97 102 105 104 103 102 99 95 94 95 97 98 97 90 82 76 67 55 45 39 32 27 23 20 18 19 21 23 26 30 37 43 47 48 51 60 71 75 73 71 75
90 89 89 89 91 92 93 94 95 95 93 91 91 95 102 105 103 99 96 91 85 83 86 92 100 105 104 103 103 102 100 100 102 103 102 100 96 94 87 71 57 50 43 36 30 25 22 23 23 27 35 35 30 32 39 44 48 57 73 87 89 85 84
102 100 99 99 98 97 98 99 100 99 97 95 94 94 97 102 104 103 102 99 95 90 87 87 92 100 104 104 104 107 106 103 101 101 101 101 99 101 101 89 74 64 54 47 41 32 29 29 31 50 77 78 57 40 35 40 49 55 63 80 94 95 92
97 98 99 101 102 104 106 106 106 104 101 100 100 100 100 102 105 106 104 103 103 102 99 96 95 98 102 104 105 107 106 102 97 93 94 97 98 101 104 101 93 78 63 56 52 43 38 36 37 62 98 104 88 70 49 40 50 58 62 73 92 101 100
68 70 72 75 78 83 88 93 98 102 103 104 103 101 101 102 105 108 107 104 103 104 104 103 102 102 104 106 108 108 107 104 100 95 93 95 99 102 103 103 103 95 80 72 64 52 47 44 42 64 96 104 99 92 72 58 68 81 80 79 87 100 103
52 51 51 51 51 52 55 60 68 76 85 94 100 102 102 101 102 105 107 106 104 102 101 101 101 103 105 106 106 105 106 105 102 100 98 96 97 102 103 100 101 103 98 90 81 69 61 53 46 65 95 103 100 100 92 85 92 101 99 92 91 97 102
51 50 51 50 49 47 44 43 43 46 52 62 74 87 96 102 105 106 106 106 103 99 98 97 97 99 102 104 104 102 102 102 99 98 100 97 95 100 105 101 99 102 101 96 91 83 75 63 51 63 92 103 98 100 102 100 101 103 102 97 94 98 102
56 59 63 66 68 66 61 55 48 42 38 40 45 55 67 80 92 100 103 104 102 99 96 93 92 92 91 91 92 92 93 93 90 90 92 95 97 102 106 102 99 100 101 99 97 92 84 72 57 60 86 103 101 99 101 100 100 100 98 92 90 95 102
63 66 69 73 78 81 79 75 69 57 46 40 39 41 46 52 61 71 80 87 91 93 93 91 91 91 91 90 90 90 89 88 87 86 85 89 96 101 103 102 101 101 100 100 100 98 94 89 76 69 81 97 101 100 101 101 100 100 99 95 94 97 101
72 65 60 61 65 69 71 76 82 79 69 57 48 43 41 39 38 40 44 49 53 57 60 63 65 66 66 67 68 70 73 76 80 83 84 89 99 104 103 101 101 101 101 101 101 100 98 98 94 87 88 95 99 100 101 101 100 100 100 100 100 100 100
86 68 55 50 53 59 64 70 79 84 82 75 67 60 58 58 58 57 57 57 57 57 56 54 52 50 49 47 46 45 44 45 49 54 58 66 82 96 102 102 102 103 102 100 100 101 101 101 102 100 98 98 101 102 102 101 101 101 101 100 99 100 101
97 81 63 51 50 58 68 74 78 80 81 84 87 89 92 94 93 92 91 91 91 92 88 81 74 68 63 60 59 55 51 47 46 46 44 43 49 60 70 77 87 97 103 103 102 101 100 99 100 101 103 103 103 103 103 102 101 100 100 101 101 100 100
99 94 85 72 62 65 72 77 81 85 89 95 100 101 103 105 105 104 103 101 99 99 98 97 95 88 78 70 66 65 64 65 66 66 63 58 56 55 54 55 58 66 75 86 94 100 103 103 101 99 99 100 101 103 104 104 104 103 101 100 100 100 100
103 101 97 88 77 74 76 78 83 92 98 102 104 104 103 102 99 95 90 86 86 89 91 93 96 95 89 81 76 71 67 67 70 75 79 81 81 80 77 74 70 64 59 58 63 71 81 91 98 101 102 101 100 100 100 101 103 103 104 103 102 101 100
101 97 92 86 81 82 85 86 89 95 97 97 98 98 94 89 84 83 84 87 90 94 97 97 96 95 94 92 91 89 85 81 79 82 88 95 97 95 94 93 92 88 82 75 69 66 64 65 71 79 87 93 98 100 101 102 102 100 101 102 102 102 102
88 90 89 87 83 84 86 87 88 89 89 92 94 90 84 84 88 91 96 98 99 100 100 100 100 99 97 96 95 93 94 95 93 92 94 99 103 104 102 99 96 96 98 99 98 94 88 79 72 67 66 68 74 81 87 93 97 99 101 102 102 102 102
74 80 85 89 90 89 84 80 81 85 85 86 88 88 89 95 99 100 100 100 100 100 100 100 100 100 100 102 100 95 92 94 97 100 102 102 103 105 105 103 101 100 100 100 101 102 103 100 95 91 87 81 76 72 70 71 74 79 85 90 95 99 102
65 68 72 78 86 94 95 86 81 85 89 91 94 97 100 102 99 98 100 102 101 100 100 100 101 100 101 104 104 99 95 95 97 99 100 99 97 96 95 96 98 100 102 102 101 100 101 103 103 103 102 100 95 89 81 76 72 71 70 70 72 77 83
57 56 59 64 69 80 93 96 90 85 85 90 94 94 94 94 94 96 99 101 101 103 104 102 100 100 101 104 103 99 98 101 101 98 94 91 89 88 88 88 88 90 94 99 101 101 100 100 101 101 101 100 98 97 95 91 89 86 83 78 71 65 63
50 44 44 51 56 60 70 83 89 85 79 78 79 77 78 84 92 100 105 101 99 103 106 103 100 99 100 101 102 100 100 103 104 102 96 91 89 93 97 97 96 95 94 92 93 98 102 102 100 100 101 102 101 101 101 101 98 94 92 90 86 79 73
43 37 34 40 49 54 55 59 67 70 67 64 63 64 68 74 85 98 105 100 94 96 100 100 99 100 101 101 100 98 96 98 99 98 96 92 90 94 101 104 103 104 101 91 82 81 87 95 99 99 98 98 98 98 98 99 98 92 88 90 92 91 88
35 35 35 35 43 56 59 53 50 51 51 49 49 51 58 69 81 90 95 94 92 92 93 96 100 101 101 102 102 98 95 95 93 90 90 91 90 91 96 99 101 104 105 102 92 78 70 72 79 85 88 89 91 92 93 94 95 93 89 88 93 97 98
34 40 43 42 48 62 70 63 51 46 46 46 44 44 49 62 78 88 90 90 91 93 93 95 100 100 98 99 101 97 93 92 91 87 86 89 91 91 91 91 94 99 103 106 105 96 83 73 70 72 78 83 89 96 99 98 100 100 96 92 94 100 103

ECMWFFLT1_500_rhum_039.txt.gz
RH
45 36 35 38 40 42 45 45 44 47 51 51 51 54 61 69 75 74 70 63 53 45 36 26 19 14 11 9 8 7 5 5 4 5 7 10 12 14 15 17 18 19 22 24 27 36 45 53 55 56 65 81 93 97 99 100 98 95 92 87 86 93 97
59 49 38 34 37 42 43 42 44 48 52 54 62 72 76 78 80 81 80 75 67 61 55 43 32 24 18 14 11 9 7 6 5 4 5 8 10 12 14 17 18 17 19 22 23 27 38 52 58 60 67 79 94 101 99 99 100 98 95 89 83 87 93
61 59 50 38 35 40 41 42 47 53 59 68 81 87 83 81 83 86 85 80 73 69 64 56 48 40 33 26 19 15 11 9 7 6 6 6 8 11 13 16 20 20 17 20 24 23 29 44 59 67 66 67 84 101 102 100 102 101 101 101 95 92 94
61 60 59 46 35 39 44 46 52 59 68 77 83 83 79 79 85 89 89 83 75 71 66 62 60 57 53 46 35 25 20 16 13 10 8 7 7 9 11 14 22 29 24 19 24 27 26 33 48 66 73 69 75 94 103 101 101 101 100 101 100 100 100
68 61 61 51 38 40 47 50 55 63 72 78 77 74 72 75 83 91 91 85 76 72 68 66 66 67 67 63 51 39 34 30 25 20 14 11 9 8 11 12 18 34 42 33 28 30 30 32 39 53 69 71 69 83 100 103 101 101 100 100 100 101 103
73 65 65 55 41 41 47 50 57 68 78 80 75 71 73 78 86 94 94 88 81 77 75 73 74 75 76 74 67 60 56 51 46 38 25 17 13 10 11 12 13 26 47 53 47 40 36 37 39 43 56 68 67 73 92 103 102 101 99 99 101 103 104
76 71 70 57 44 43 47 52 62 75 83 82 79 80 84 87 92 98 99 94 87 84 83 83 84 87 88 89 89 88 86 82 77 67 49 31 22 17 13 13 14 16 30 52 66 63 53 48 49 46 48 58 63 65 80 97 105 104 100 99 100 101 103
80 79 74 58 47 47 50 59 72 84 88 89 90 93 94 93 95 100 104 100 92 89 90 91 93 96 99 101 102 103 102 100 99 94 76 54 36 27 20 15 15 16 17 31 56 69 65 59 59 59 54 57 62 60 63 78 94 100 100 100 100 99 99
87 86 75 58 50 52 58 71 86 96 98 97 97 97 98 98 98 102 106 103 95 91 94 96 99 102 104 104 102 101 101 103 105 101 88 72 54 38 29 21 18 18 17 19 31 48 57 57 58 61 61 64 71 69 61 62 74 90 99 99 99 100 100
92 83 69 58 55 60 71 86 96 101 102 100 98 98 101 103 103 104 107 104 96 93 95 99 101 104 105 102 100 100 100 101 104 98 89 84 73 55 42 32 23 20 20 19 21 29 39 46 50 55 59 62 70 81 84 75 69 81 98 102 99 99 101
86 74 64 61 64 72 83 93 98 100 102 103 103 103 103 105 106 107 106 103 96 93 96 100 103 104 102 99 99 100 99 98 95 92 89 86 81 72 61 49 35 26 22 21 21 23 27 33 40 48 56 61 67 80 95 97 85 80 90 101 103 101 100
78 70 67 68 73 79 86 90 93 95 98 103 105 105 103 104 106 106 105 103 98 93 96 100 103 105 103 102 103 101 99 97 93 92 89 80 73 70 68 63 54 42 31 24 22 22 23 25 30 37 47 58 68 77 89 98 99 93 91 96 101 101 100
81 76 73 74 76 78 80 81 83 86 91 97 101 101 100 99 101 104 104 103 98 94 95 99 101 104 103 103 104 104 103 102 100 100 93 77 68 66 65 65 63 57 47 37 28 24 21 21 24 29 36 47 61 76 88 95 100 100 97 97 100 101 100
91 88 85 83 81 80 78 76 76 81 88 95 97 98 99 96 95 100 104 104 101 97 94 93 95 99 102 101 100 101 102 101 101 105 96 78 71 73 69 64 63 60 57 50 42 35 29 26 24 23 27 36 47 62 79 90 97 101 101 99 99 101 101
102 100 99 97 95 92 89 87 86 87 90 92 91 91 94 93 92 96 102 105 104 102 96 90 88 94 100 102 100 100 101 99 100 105 99 84 80 82 76 68 65 62 59 56 52 47 41 37 32 26 23 26 33 43 56 71 85 96 102 102 101 100 100
92 97 100 102 103 102 100 98 96 95 93 92 90 89 90 90 89 92 99 104 106 106 102 94 91 95 99 100 100 99 100 100 101 104 102 93 90 90 86 82 80 76 70 63 57 53 48 44 39 34 28 25 25 29 37 49 62 75 86 95 100 100 99
57 63 69 77 83 88 91 94 95 96 96 96 97 97 95 93 91 90 93 98 101 104 105 100 98 100 101 102 102 100 98 99 99 100 101 99 96 94 94 95 96 94 89 82 75 68 61 53 46 40 35 30 26 25 26 32 41 52 63 74 83 89 93
47 45 46 48 51 54 59 65 71 78 87 94 99 102 101 99 96 94 94 95 96 98 103 105 105 104 103 103 104 101 98 99 98 97 100 103 102 100 100 101 103 104 103 99 93 86 74 62 52 44 38 35 31 26 24 24 26 33 43 52 61 70 78
61 59 57 54 51 49 45 43 44 47 54 67 80 90 98 101 100 98 96 95 96 95 98 103 106 103 100 101 103 103 102 101 98 99 101 103 105 105 105 105 104 104 103 100 97 94 87 75 61 48 39 37 34 30 26 24 22 23 27 34 41 50 58
67 62 61 60 59 60 59 56 54 48 40 39 46 58 74 87 96 100 100 99 99 99 100 104 107 105 101 99 100 102 103 102 101 102 103 104 105 106 105 103 100 97 95 92 91 91 89 85 76 62 47 39 36 33 30 26 24 22 21 23 27 33 40
75 60 54 55 56 59 64 68 73 71 59 43 34 35 45 59 73 87 97 101 102 103 103 104 106 106 104 102 101 101 103 104 106 107 105 103 104 103 100 98 98 98 95 91 89 87 83 82 84 80 68 54 44 37 34 31 28 25 23 24 24 24 26
90 68 53 50 53 60 66 70 77 82 77 63 46 34 32 38 46 56 70 83 93 100 105 106 106 106 105 102 101 101 101 101 103 104 103 103 105 105 101 98 98 97 95 93 90 85 81 81 85 89 87 78 65 54 45 38 35 32 29 27 29 33 33
102 87 66 53 54 63 73 77 78 82 85 82 72 58 44 37 35 34 37 44 53 63 75 83 88 93 96 96 97 100 100 100 99 98 97 97 101 103 101 99 98 96 96 98 96 91 86 83 85 92 98 96 90 81 68 58 55 53 47 44 52 67 72
105 96 79 67 63 68 78 86 88 88 88 88 89 88 81 70 62 57 52 49 46 44 46 49 52 56 60 63 67 71 74 78 81 83 85 87 93 97 98 97 96 95 96 98 98 98 97 94 91 93 99 101 101 97 86 76 73 71 66 69 84 98 100
103 93 77 69 70 72 77 86 94 96 96 94 94 95 95 90 86 82 78 74 70 67 63 61 59 58 58 57 55 53 51 51 51 53 54 58 65 73 78 82 87 91 93 96 99 100 102 103 101 100 101 101 100 99 95 90 87 80 70 70 86 101 104
103 98 80 66 66 70 76 85 90 91 95 102 103 97 89 86 86 87 85 84 84 85 86 86 85 83 82 80 76 70 65 62 58 52 47 43 43 45 47 51 57 64 72 81 92 100 104 106 105 104 103 102 99 98 99 98 97 96 87 77 81 95 102
85 89 84 77 73 71 74 81 85 85 88 96 101 98 91 88 91 96 98 98 97 98 98 98 99 98 97 97 94 86 78 73 71 68 64 59 57 55 52 47 43 44 47 52 61 75 88 100 106 107 104 102 98 96 98 100 99 100 100 94 89 92 99
57 62 70 81 87 83 78 76 77 81 85 90 92 92 91 93 98 104 104 101 101 102 101 100 100 100 100 101 101 98 90 83 78 78 78 77 75 74 73 69 63 59 56 51 48 49 56 68 84 96 103 105 102 96 92 95 97 99 101 102 98 96 99
44 44 48 59 74 85 88 83 77 75 79 83 86 87 91 95 98 99 96 93 95 98 99 99 100 100 98 97 97 98 99 96 91 88 88 90 93 93 92 89 86 84 81 76 70 65 60 57 58 66 77 88 97 101 98 95 94 95 97 99 100 101 102
42 40 39 41 50 66 80 86 87 85 83 82 84 86 88 89 87 87 91 94 96 97 99 100 100 100 100 99 98 98 102 105 104 99 96 97 100 101 101 100 100 100 99 96 94 92 89 84 77 70 67 66 70 80 89 94 97 100 99 98 97 98 99
42 39 37 36 38 46 58 71 82 89 92 92 92 91 90 87 86 91 98 102 101 102 103 102 101 102 103 101 100 100 101 105 107 104 103 102 97 92 92 95 97 99 100 101 102 102 101 101 100 96 91 84 76 71 71 74 80 88 95 98 100 100 101
40 36 33 33 36 40 48 56 63 69 76 85 90 94 96 97 98 100 102 102 101 102 104 104 103 104 103 100 100 103 105 106 105 102 101 102 98 92 89 89 91 93 94 95 98 101 100 100 101 101 100 100 98 93 88 82 78 76 77 81 88 94 100
34 30 29 32 38 41 45 52 57 56 54 60 69 75 82 94 103 103 101 102 104 104 105 105 105 105 102 97 97 101 103 100 98 98 99 101 100 98 97 96 95 96 96 96 97 99 101 101 100 100 100 100 100 100 100 100 97 92 87 82 80 81 85
30 34 39 44 46 45 44 50 60 60 51 49 56 59 62 77 94 99 96 97 101 103 103 103 104 106 105 100 97 98 98 95 92 93 98 101 101 99 99 101 102 100 99 100 100 101 103 103 102 101 100 100 100 100 100 100 101 100 100 99 97 94 92
58 65 67 61 59 58 54 54 64 70 58 48 51 56 57 63 74 82 88 94 99 100 99 100 103 104 103 99 96 94 94 95 93 91 93 96 98 97 96 98 102 103 102 100 100 102 100 95 93 98 101 100 100 101 100 100 100 97 95 96 98 98 99
87 85 82 79 80 83 78 73 79 83 69 51 46 51 55 57 57 60 70 86 96 97 94 95 97 97 95 94 95 93 90 92 94 93 91 90 89 88 87 88 92 97 101 101 101 105 102 88 76 78 86 92 97 99 99 100 100 99 97 97 97 97 98

ECMWFFLT1_500_rhum_045.txt.gz
RH
58 59 59 55 54 51 49 49 39 29 27 25 20 16 10 8 7 6 6 6 4 4 4 4 4 5 8 12 17 23 30 35 39 43 46 50 53 55 58 61 63 64 59 54 53 51 47 44 41 39 42 47 49 53 58 61 60 57 56 56 53 50 47
64 61 61 58 55 51 49 51 44 31 29 29 26 24 20 16 13 10 8 8 7 6 6 5 4 5 4 5 6 8 11 15 19 23 26 30 34 36 40 43 45 49 50 49 49 49 47 45 43 40 40 44 46 49 53 58 60 58 57 57 56 53 55
71 64 64 60 57 53 50 53 48 36 32 36 36 36 37 34 30 27 22 18 15 12 10 8 7 6 5 5 5 4 4 5 6 7 9 12 15 18 22 26 29 32 35 37 39 40 41 40 38 36 37 41 44 46 49 52 57 59 56 55 56 54 57
76 69 69 65 60 58 55 56 56 44 35 40 45 45 47 49 48 47 45 42 39 35 31 27 23 20 17 13 10 8 7 6 5 5 4 4 5 6 8 10 13 16 19 23 26 28 31 33 33 31 30 33 37 40 44 47 51 56 57 54 54 54 51
85 77 77 74 69 67 65 64 65 56 42 40 46 45 45 50 53 56 57 57 57 55 51 46 42 39 36 30 25 21 18 15 12 10 8 7 6 5 5 4 5 6 7 10 13 17 20 23 26 26 26 27 29 32 36 40 45 51 56 55 53 53 51
98 93 90 87 80 76 76 75 76 72 56 43 44 46 44 47 51 54 58 60 61 62 61 59 56 55 53 49 44 40 37 32 28 24 20 17 14 12 10 8 6 5 4 4 5 7 9 12 16 19 21 23 25 27 28 32 37 43 51 56 54 52 51
100 100 99 99 96 90 89 88 87 85 70 50 42 44 44 47 51 55 59 64 68 73 77 79 79 79 78 74 69 63 59 53 47 42 38 35 30 26 20 16 13 10 8 7 5 4 4 5 8 10 14 18 20 23 26 26 29 33 40 49 55 54 51
103 103 101 100 100 99 101 101 95 88 77 57 42 40 43 47 53 59 65 72 78 84 89 92 92 94 95 93 89 82 74 65 58 54 52 49 45 41 35 29 24 19 15 11 9 7 6 5 5 5 6 10 13 16 20 23 25 27 31 38 46 53 53
100 103 105 105 104 102 103 104 99 90 78 59 42 39 44 50 58 65 73 80 86 89 90 90 91 93 96 97 95 89 79 70 65 61 58 55 53 50 46 40 36 32 25 19 14 12 10 8 7 5 4 4 6 9 12 17 21 22 25 31 36 43 49
92 91 92 96 101 103 102 98 91 82 68 52 43 44 48 55 64 72 79 85 87 88 88 88 90 92 92 91 88 85 81 76 73 68 62 59 57 56 54 51 49 44 37 30 22 16 13 11 10 9 7 5 4 5 6 8 13 17 20 24 29 34 40
84 86 85 83 81 83 84 81 74 65 55 48 47 52 56 63 71 76 80 83 85 87 90 93 95 96 94 89 86 84 81 78 76 71 67 64 62 61 61 60 58 54 47 40 32 25 20 16 13 10 10 9 7 6 6 5 6 9 13 17 21 27 32
59 69 77 83 83 78 73 68 64 59 57 56 57 60 65 71 78 81 83 84 86 89 92 95 98 98 95 92 90 88 82 77 74 72 71 71 70 69 69 68 66 62 57 50 42 36 30 24 20 17 13 11 10 8 7 7 6 6 7 11 14 18 24
45 47 52 60 71 80 83 81 77 71 66 65 66 69 73 77 80 82 84 85 86 89 92 95 97 99 99 96 93 89 83 80 78 76 76 77 78 77 76 75 74 72 69 66 60 55 48 44 40 31 21 16 15 14 12 9 8 7 6 7 9 12 16
51 46 47 47 47 53 63 74 83 87 85 80 75 72 73 76 78 79 80 81 83 86 89 93 95 98 101 102 98 93 87 83 81 80 80 82 83 83 83 83 85 85 84 84 85 81 76 76 73 58 43 35 28 20 16 13 10 9 8 6 6 10 12
70 53 48 52 54 51 48 49 56 68 79 87 89 87 82 78 75 74 73 73 75 78 84 89 92 94 98 101 101 99 93 87 84 85 86 88 90 91 91 92 95 98 99 99 100 98 95 96 96 88 79 74 65 46 24 14 12 10 8 8 7 13 18
81 63 51 52 58 60 59 55 49 47 50 58 69 80 88 90 87 82 77 72 71 73 79 85 88 90 93 95 98 99 96 90 87 87 89 93 96 97 97 98 100 102 103 103 103 103 101 100 100 101 101 100 98 82 49 23 15 11 10 8 8 28 46
69 57 51 55 60 62 63 66 67 62 55 48 46 49 58 70 81 85 85 82 77 75 77 80 82 84 88 94 98 96 94 91 87 88 93 96 100 101 99 99 101 101 100 101 102 101 101 101 99 100 101 100 103 102 81 49 24 14 14 9 11 48 83
72 60 52 51 57 65 68 70 73 74 73 67 59 51 44 44 51 63 72 79 80 78 76 75 75 77 83 93 100 96 93 92 89 89 94 100 103 104 103 101 101 101 100 99 99 98 99 101 101 101 100 98 99 102 97 78 49 29 22 10 13 56 98
70 79 79 66 56 58 66 73 76 77 77 77 75 71 59 44 38 42 51 62 73 77 77 77 79 82 85 92 98 96 94 97 96 94 98 103 104 104 105 104 100 98 98 95 93 94 97 98 95 93 90 87 85 86 88 87 75 54 35 15 12 52 96
49 63 79 82 75 69 67 70 77 81 83 83 85 85 74 51 37 36 39 46 61 75 83 85 88 90 89 91 95 98 99 100 102 103 104 105 105 104 105 103 97 94 93 89 86 88 91 90 85 83 83 80 77 75 73 80 83 69 50 30 15 37 84
52 47 51 60 71 80 83 81 81 85 90 93 92 93 84 59 38 35 38 41 51 69 84 90 92 93 92 91 95 100 102 102 102 104 106 105 105 105 104 100 97 96 91 85 83 84 86 88 85 84 88 86 81 76 70 72 79 76 66 53 30 24 58
64 58 49 44 48 62 80 91 91 86 91 100 101 97 91 74 49 36 37 40 47 63 81 91 95 95 94 95 98 102 105 105 101 100 102 104 104 103 103 101 99 97 91 86 85 84 87 93 95 92 94 96 93 89 81 72 72 73 71 69 54 31 35
64 64 61 53 45 42 55 78 93 90 84 92 99 96 93 89 74 53 41 37 38 48 66 85 98 103 101 99 100 102 106 108 105 101 101 102 102 102 102 102 100 98 97 96 94 94 96 100 102 99 98 101 102 101 98 89 81 76 71 70 68 52 35
55 58 59 58 53 43 38 51 77 91 86 80 84 87 88 92 93 83 68 56 46 42 46 57 74 91 102 105 107 106 106 105 102 100 100 100 101 102 101 101 100 99 102 102 100 103 104 102 102 102 100 101 102 102 103 103 101 97 90 81 75 68 52
50 50 51 51 51 49 41 36 49 75 88 82 73 75 81 87 93 96 93 88 81 73 65 58 57 63 73 83 92 97 101 104 103 103 102 100 100 99 98 100 102 101 102 102 100 102 103 100 99 101 101 100 102 102 102 103 103 103 103 100 93 84 72
50 48 47 44 42 43 43 37 34 50 76 87 77 68 74 83 89 95 98 100 101 99 96 91 84 78 74 72 73 74 77 83 87 92 97 100 101 103 101 101 103 103 101 101 101 100 101 101 101 100 100 100 100 100 101 102 102 102 101 102 104 102 91
45 44 42 38 35 34 35 36 32 32 53 78 85 76 72 77 84 92 98 102 104 104 104 103 101 100 98 96 92 87 83 79 74 73 75 79 83 90 95 98 102 104 103 103 102 101 99 99 99 99 101 103 103 102 101 99 101 104 105 104 105 105 99
37 36 35 32 30 28 27 30 31 29 37 58 78 84 81 80 84 90 95 98 99 100 101 103 102 101 102 103 103 103 102 100 94 86 79 73 68 66 70 75 81 86 91 96 99 101 102 102 101 101 102 102 102 102 103 103 101 102 105 107 104 99 96
58 58 57 53 46 40 36 34 34 32 31 42 62 77 84 86 89 93 95 96 95 95 97 101 103 103 102 101 100 101 102 103 103 101 95 88 81 73 67 64 62 62 66 71 75 79 86 91 97 102 105 104 102 100 101 103 103 103 105 107 106 101 96
89 90 92 89 82 75 71 67 61 52 41 37 48 62 74 81 86 90 94 96 95 96 99 100 99 98 99 100 99 100 100 100 101 102 101 97 93 90 84 78 72 66 63 64 64 62 61 64 71 79 86 92 98 102 104 104 102 101 103 105 106 106 105
94 94 96 98 95 92 93 92 88 78 62 47 44 50 59 66 72 78 84 87 87 89 95 99 98 95 94 97 99 100 100 100 100 100 102 102 101 101 99 97 93 86 80 77 77 73 67 65 65 65 65 67 71 78 85 93 100 103 103 103 102 101 102
97 93 89 89 90 92 93 91 86 80 70 56 46 47 52 55 59 62 66 71 75 80 86 90 92 91 90 93 98 100 99 100 102 101 101 104 105 105 105 105 105 103 99 96 95 93 89 86 86 86 83 79 75 72 69 71 78 87 94 100 103 102 100
104 102 95 90 92 94 92 87 82 79 74 62 50 46 51 54 54 53 54 57 64 72 79 84 87 89 89 91 96 100 101 102 106 105 102 102 103 103 103 104 104 104 105 104 101 100 100 98 98 101 103 100 97 95 92 86 80 76 77 83 90 97 101
101 102 100 97 98 95 87 84 86 87 84 76 62 50 50 54 55 53 51 52 55 61 71 83 89 89 88 90 95 102 104 105 105 104 101 100 101 102 103 104 104 104 105 104 100 98 97 95 93 95 98 100 100 101 101 101 98 93 87 82 80 81 86
97 99 100 100 99 91 80 82 91 94 91 88 80 66 58 57 57 56 54 52 51 53 62 78 91 92 88 88 92 96 99 100 101 101 101 101 103 105 106 106 106 104 103 103 103 103 102 99 95 92 92 94 98 101 101 100 100 101 101 98 93 88 83
99 101 103 105 103 93 80 81 94 99 95 92 90 84 78 72 65 59 53 50 51 53 57 70 88 96 95 91 89 89 91 94 96 95 94 94 97 102 105 107 107 106 103 100 100 103 105 104 103 102 101 98 97 98 101 102 100 98 99 101 101 101 100

ECMWFFLT1_500_rhum_051.txt.gz
RH
73 77 81 86 86 80 74 75 78 74 67 62 58 53 51 51 51 51 54 58 57 51 44 38 33 28 25 22 17 12 7 5 6 14 29 51 69 79 83 82 79 74 70 76 87 90 87 81 71 62 58 53 48 46 44 44 44 43 43 42 41 41 39
67 75 81 87 91 90 82 73 72 72 69 67 66 64 63 63 63 62 61 58 53 45 37 31 27 24 22 21 19 16 12 8 5 5 10 23 42 60 73 78 78 73 66 68 77 84 88 90 86 75 65 60 56 52 49 47 47 48 47 47 47 46 45
48 63 75 82 88 92 91 82 74 72 71 70 70 71 72 70 66 62 57 50 42 35 30 26 24 22 21 20 18 16 14 11 8 6 5 7 16 32 51 66 73 72 67 65 71 77 81 87 94 91 80 69 62 58 56 53 51 52 52 52 52 51 50
34 43 58 72 82 89 94 93 85 77 73 72 72 71 71 69 64 56 47 39 34 31 30 30 28 25 21 19 16 14 12 10 8 7 6 5 6 11 23 41 57 66 68 66 69 76 79 82 88 93 92 85 76 67 62 59 57 56 56 55 55 55 55
36 34 40 53 67 79 88 95 95 88 80 75 72 70 67 65 60 51 40 35 34 34 35 35 34 32 27 21 15 11 9 7 7 6 6 5 5 5 7 16 30 47 59 63 66 70 77 84 87 89 90 91 91 84 76 69 64 61 60 58 58 58 58
37 34 34 38 48 60 74 87 94 95 91 86 81 75 70 66 60 49 40 37 36 36 36 37 39 39 37 32 22 13 8 7 7 7 6 6 5 5 5 6 11 22 36 50 58 63 71 80 86 89 88 89 92 92 88 82 77 71 67 64 61 61 61
36 32 34 38 41 45 54 68 81 90 94 94 94 89 82 75 68 58 47 40 38 39 39 40 43 45 47 46 39 28 16 9 7 7 8 8 7 6 5 5 6 8 16 27 41 53 62 70 78 84 88 89 90 91 89 87 84 80 76 73 69 68 68
45 35 30 34 43 46 47 50 59 72 84 90 95 98 96 89 80 70 57 46 42 44 45 46 48 52 55 56 54 49 39 27 16 10 7 7 8 8 7 6 6 5 6 11 19 32 45 56 67 74 81 86 89 90 88 85 83 81 79 79 78 77 78
54 49 39 33 35 42 49 50 50 53 62 74 82 87 92 94 91 83 67 51 44 46 50 53 54 57 61 64 65 64 62 56 45 32 22 13 8 7 7 7 7 6 6 6 7 13 22 34 46 57 66 74 79 84 86 87 86 84 81 80 79 78 79
50 53 52 46 40 38 41 46 50 51 50 55 64 71 74 75 74 71 62 50 44 45 50 56 61 64 67 71 75 76 76 75 72 67 60 46 30 20 14 9 8 7 6 6 6 6 8 12 21 31 42 52 61 68 74 78 82 83 81 80 80 77 75
50 50 51 52 53 52 49 43 43 49 52 51 52 57 63 65 62 56 51 48 47 50 55 61 68 74 77 79 81 84 88 89 87 87 88 84 72 58 45 32 23 17 12 8 6 5 6 6 7 12 18 25 35 43 51 59 67 72 75 76 77 76 74
59 57 54 53 53 56 60 58 51 46 48 53 53 51 53 59 64 64 61 57 55 58 65 71 77 83 88 91 92 92 93 96 99 99 98 98 96 90 81 69 58 50 40 28 19 12 8 6 5 6 7 10 15 20 26 34 42 51 59 64 67 70 70
63 63 62 61 59 55 54 61 65 60 54 54 56 58 56 54 55 61 67 70 71 71 73 78 87 94 98 100 101 101 100 99 102 103 102 100 99 98 100 97 91 85 77 66 54 41 31 24 17 12 10 8 7 8 11 16 22 29 38 45 51 57 61
62 64 65 64 65 64 57 55 59 64 65 63 61 62 66 65 59 55 56 63 71 78 82 84 88 96 102 103 101 100 100 100 100 100 101 101 100 99 101 102 103 103 99 91 82 73 68 63 50 40 37 29 19 13 10 9 10 14 18 23 30 37 44
57 61 65 63 62 63 63 59 56 56 59 65 67 68 70 72 72 67 60 57 59 65 74 84 89 93 97 101 103 101 98 97 97 97 99 102 104 104 102 100 102 105 105 103 96 89 89 89 78 67 63 57 44 34 27 20 15 13 11 11 14 18 23
46 51 58 62 60 60 59 58 59 56 51 51 58 67 73 75 74 75 73 68 64 62 61 67 79 89 93 94 98 101 101 99 96 95 97 103 106 106 104 103 104 104 102 102 100 95 93 94 86 74 68 63 57 51 46 40 34 27 20 15 12 11 12
42 42 48 54 57 59 60 57 57 59 57 50 46 53 68 77 74 72 74 74 74 74 68 58 59 73 86 90 90 90 93 98 98 96 97 102 105 106 105 104 103 102 101 99 98 96 93 90 84 75 69 68 65 61 58 52 46 39 33 27 22 18 16
37 38 40 44 48 51 56 57 57 59 62 59 50 45 54 71 78 73 71 74 79 81 74 59 48 52 68 82 88 85 82 83 87 91 95 99 102 106 106 104 102 103 102 96 91 89 88 85 82 78 76 76 74 72 69 62 55 51 45 38 32 29 27
31 31 32 36 39 41 44 47 49 54 57 57 55 48 44 56 75 80 73 72 81 81 65 50 43 43 49 63 77 84 83 78 76 79 84 89 94 99 105 105 102 101 98 92 86 85 83 82 83 84 82 81 79 77 73 67 62 59 54 49 46 43 40
51 38 30 29 31 34 36 38 40 44 47 48 51 52 45 43 60 79 78 73 81 81 59 41 44 47 43 46 57 69 77 78 76 75 78 82 85 92 102 104 96 88 86 85 85 85 82 81 84 84 82 79 76 73 69 64 62 61 61 59 57 55 51
90 74 55 42 34 30 31 34 36 39 42 43 44 46 44 38 43 66 80 77 81 84 64 42 43 49 47 43 45 52 64 72 74 74 74 76 79 84 91 92 85 81 81 83 84 83 81 80 81 80 77 74 72 69 67 65 65 66 68 68 66 65 63
102 103 93 78 63 50 40 34 33 35 37 40 40 38 40 36 34 54 78 79 78 87 79 55 41 41 44 49 50 54 63 71 76 78 77 75 77 82 85 85 84 84 83 84 88 86 82 80 79 77 76 77 78 79 77 76 75 74 74 74 73 74 73
95 102 106 102 94 84 73 60 51 46 42 43 45 41 40 37 30 42 71 81 77 84 91 81 64 48 39 43 53 66 79 86 87 88 89 89 88 89 89 88 89 90 89 90 92 88 84 84 83 83 85 87 91 94 91 86 83 82 81 80 81 82 81
88 95 101 104 102 98 96 91 83 76 70 69 68 59 49 40 30 35 62 82 80 82 91 96 93 83 64 49 48 59 79 98 106 102 98 97 96 96 97 98 99 99 97 94 92 89 89 91 90 91 94 98 102 103 99 94 93 92 91 90 90 92 91
81 91 94 100 103 101 101 101 96 89 87 90 92 85 69 51 32 29 53 80 84 83 91 99 101 102 99 87 73 65 68 84 100 106 105 101 97 96 98 102 104 104 100 96 96 97 97 97 98 100 102 103 103 103 100 100 101 100 98 96 95 97 98
68 88 92 94 99 102 103 102 97 91 88 89 94 98 93 78 51 30 42 73 88 85 90 101 104 102 104 105 100 92 85 82 85 91 96 101 103 102 101 101 100 101 100 100 103 105 104 102 102 102 99 98 99 101 101 101 102 100 99 99 100 102 102
45 77 93 95 94 95 97 97 95 93 90 90 93 98 101 100 87 57 41 59 86 91 88 96 106 106 101 98 98 98 98 96 93 89 87 88 93 97 101 103 102 101 101 102 101 102 104 104 102 98 95 96 99 101 101 100 99 99 99 99 101 102 100
22 53 85 97 97 94 92 90 87 87 89 91 96 102 103 103 105 93 67 56 73 92 95 94 102 106 102 99 99 98 95 95 96 95 92 87 85 85 85 88 92 95 99 102 103 103 104 104 101 98 97 98 100 101 102 100 98 98 99 98 97 97 97
9 30 63 89 100 100 98 96 91 87 88 91 96 103 106 101 102 107 97 73 65 80 96 99 100 102 102 101 101 101 99 98 98 99 99 98 95 91 86 82 80 80 81 85 89 93 98 101 103 103 103 102 100 101 102 102 101 101 101 98 96 93 94
5 13 37 72 99 106 102 101 100 95 94 96 96 99 103 102 99 103 107 93 72 70 85 98 99 99 101 102 103 104 104 104 104 104 105 105 102 99 97 95 92 88 84 79 76 74 75 78 82 88 93 97 99 101 102 101 100 101 100 98 97 97 97
5 5 15 46 85 105 103 100 103 102 100 101 101 100 99 99 100 99 101 100 85 68 71 86 96 97 97 98 102 106 106 104 105 105 104 106 106 104 101 101 101 101 98 94 88 84 79 73 68 66 70 75 80 86 94 99 100 100 99 96 94 95 96
5 5 5 22 60 94 105 104 103 103 102 102 103 104 100 98 101 99 93 93 89 73 62 70 83 90 92 93 97 103 106 105 105 104 103 104 106 104 99 96 96 98 99 99 98 96 94 90 85 79 75 73 69 68 71 79 84 89 94 95 94 94 96
5 5 3 9 33 67 92 102 102 100 100 99 98 100 99 98 102 101 91 85 85 75 62 60 67 74 79 82 85 92 98 100 100 100 99 101 105 104 98 92 92 93 95 97 99 99 97 96 94 93 93 93 89 81 74 71 71 73 76 77 79 84 92
5 5 5 4 13 36 67 91 100 99 98 95 92 94 97 97 97 98 92 88 88 81 66 55 55 59 63 66 71 78 85 91 94 95 95 97 102 105 102 98 97 96 94 94 95 97 99 99 97 95 96 99 103 102 96 88 82 79 78 76 74 74 78
6 5 6 5 5 15 39 68 88 93 93 90 86 87 94 98 96 94 94 94 94 90 77 59 51 51 55 58 61 66 72 79 88 94 96 96 99 104 104 102 102 102 100 99 97 95 96 98 99 98 97 98 102 106 103 99 95 92 93 95 95 91 86
7 6 5 6 5 5 15 38 66 84 88 85 81 80 88 97 97 94 96 99 99 97 90 73 57 50 52 56 59 62 64 69 78 88 93 93 93 96 97 97 100 103 104 103 102 100 98 98 99 101 101 99 100 102 102 101 101 98 96 98 102 103 102

ECMWFFLT1_500_rhum_054.txt.gz
RH
21 22 25 27 34 45 58 65 67 72 75 67 59 58 58 57 56 52 45 38 33 31 30 29 30 32 34 33 32 31 29 27 25 22 20 19 18 22 29 38 48 54 56 60 66 71 76 84 94 97 90 77 65 56 48 41 35 32 30 29 29 28 27
22 20 22 26 28 34 47 61 69 75 81 80 72 66 62 59 59 58 55 51 46 41 38 35 33 35 37 37 36 35 33 31 29 27 24 22 19 16 15 17 24 35 44 52 58 63 65 69 77 88 95 94 86 75 66 56 46 40 35 32 31 31 30
28 24 21 24 29 31 36 48 61 73 83 87 83 76 70 64 61 59 58 57 54 51 48 45 41 40 40 39 38 38 37 35 33 31 29 27 25 22 18 14 12 14 23 34 45 53 58 61 64 70 80 91 96 93 86 75 64 53 45 38 35 33 33
32 32 26 23 28 33 35 38 48 61 76 88 90 86 80 72 66 63 60 57 56 54 52 51 48 46 44 42 41 40 40 39 37 36 34 31 29 26 23 20 15 11 10 14 23 35 46 53 57 59 64 74 86 95 97 93 83 72 60 50 42 37 35
32 37 37 30 28 30 34 37 41 47 59 76 90 94 91 83 75 70 65 61 58 55 54 53 52 50 47 45 45 44 41 39 37 34 32 29 27 26 24 22 19 15 11 8 8 15 25 37 48 54 56 61 69 80 91 97 96 89 79 66 55 47 40
33 37 42 41 38 34 32 34 38 42 46 56 73 89 96 94 87 79 73 68 63 58 55 53 51 49 47 44 41 39 36 33 31 29 27 25 23 21 21 20 19 17 14 11 7 6 9 17 29 42 51 55 59 65 74 86 93 95 91 82 71 61 52
37 38 41 43 45 46 44 40 38 40 41 43 51 68 84 94 95 91 84 76 71 65 58 52 46 41 38 36 35 33 32 30 29 28 28 26 22 20 18 17 17 16 15 13 10 8 6 6 12 24 37 49 56 59 62 70 80 88 92 92 86 78 68
43 42 42 42 44 47 52 53 49 45 44 42 42 47 60 75 86 93 94 89 82 76 68 58 49 42 38 36 34 32 31 30 30 31 32 31 27 21 16 13 12 12 12 13 12 10 8 6 5 9 19 34 49 58 60 61 68 76 83 90 92 89 84
46 48 46 45 45 47 50 53 54 53 51 48 45 42 44 53 65 75 85 91 91 88 82 72 60 50 45 41 37 34 32 31 33 35 37 37 34 29 21 13 8 8 8 8 9 10 10 9 7 5 7 17 32 49 57 61 65 70 75 83 90 92 94
40 48 52 51 48 49 53 55 54 53 53 54 53 49 44 44 50 57 64 73 80 84 84 80 70 58 49 44 41 38 37 38 40 42 43 42 40 39 35 25 14 7 6 7 7 7 8 9 9 8 6 6 14 28 45 58 67 69 69 76 84 89 94
31 39 49 55 54 49 51 58 61 57 53 52 55 58 55 49 47 49 53 57 62 66 68 65 60 53 48 46 44 43 45 49 50 51 51 50 48 47 48 46 38 23 11 6 6 7 7 7 6 7 7 6 7 12 23 41 58 68 71 74 79 84 87
27 31 38 49 57 54 48 51 61 64 60 55 52 54 59 60 56 51 50 51 54 57 61 60 56 51 48 49 51 53 56 59 61 62 61 59 58 57 58 61 62 55 40 23 11 6 6 7 7 7 6 5 6 6 10 20 35 52 66 74 78 78 81
32 28 31 38 49 54 49 47 53 58 61 61 57 52 52 57 61 61 58 54 51 51 54 59 63 65 63 61 62 66 70 71 72 72 72 70 69 69 71 73 74 76 74 63 46 29 15 7 5 7 8 8 6 6 6 9 16 28 45 61 72 76 78
51 36 28 31 40 47 46 46 49 53 53 56 58 57 53 51 53 58 61 62 60 55 51 52 56 64 70 75 77 79 82 83 83 81 78 78 79 80 82 84 86 88 88 85 84 78 63 42 23 11 7 7 7 8 7 6 8 13 22 36 53 66 76
66 60 41 29 32 41 43 41 44 48 49 50 51 53 54 53 51 50 53 59 64 65 61 55 54 56 60 67 77 84 88 92 92 89 84 81 82 85 86 89 95 100 98 91 92 98 99 89 73 54 37 22 10 7 8 7 7 8 10 17 28 43 58
53 73 70 49 34 34 39 41 42 44 45 46 46 47 49 51 52 51 50 50 55 64 68 64 61 62 61 62 67 74 84 93 96 95 92 87 83 82 84 92 99 101 101 99 96 98 100 100 99 96 86 68 41 19 11 9 8 8 7 9 13 21 32
28 56 80 82 63 43 35 35 38 43 44 43 42 44 45 46 47 50 51 48 46 53 65 68 65 67 73 73 67 63 68 82 94 97 97 94 88 82 83 94 101 98 99 102 103 104 103 100 100 100 100 98 83 59 43 30 17 11 9 7 8 10 15
13 29 59 87 95 81 61 45 37 35 36 37 38 39 40 41 41 43 46 48 44 43 55 67 68 71 77 72 59 51 52 64 82 96 98 95 91 90 93 99 98 94 96 99 100 103 104 102 102 100 99 101 99 93 84 62 40 31 24 13 9 8 9
7 14 31 60 87 99 97 85 70 55 43 36 33 33 35 36 37 38 39 43 42 38 48 66 72 75 74 59 43 41 44 47 63 84 95 95 91 92 98 101 96 92 92 92 94 99 104 104 103 100 100 100 100 101 97 80 66 61 49 33 27 23 18
4 7 15 35 61 85 100 104 100 91 79 64 48 38 34 32 33 35 36 39 39 35 44 64 75 76 72 55 40 44 47 43 49 67 83 90 88 87 90 93 93 93 92 90 92 95 99 105 106 102 98 97 95 96 94 83 74 70 63 54 49 45 37
5 4 7 20 42 68 89 101 103 104 104 98 83 67 55 46 41 40 38 41 41 35 40 60 74 77 75 60 45 46 51 46 42 52 68 81 84 81 80 81 84 87 88 88 90 91 92 100 108 108 103 100 97 95 90 82 75 73 71 68 65 61 57
5 5 5 10 25 48 73 92 102 105 106 106 100 92 86 77 67 61 56 53 49 39 37 56 73 77 79 74 55 43 46 49 45 44 52 63 72 75 75 75 75 78 81 82 85 88 90 95 102 107 107 106 105 102 93 85 81 81 82 81 77 73 69
5 5 5 6 14 31 55 78 95 102 103 102 98 96 97 95 89 86 81 71 59 42 35 51 73 78 80 85 77 55 43 44 49 53 56 58 62 67 69 71 72 72 76 79 81 84 89 92 97 104 107 106 106 106 100 91 89 90 89 85 80 76 72
6 5 5 5 7 16 37 63 86 97 100 100 99 97 98 99 98 99 97 86 67 45 32 45 72 82 78 85 93 84 65 50 46 54 66 73 76 74 73 73 72 70 69 72 76 83 91 95 98 103 106 105 107 108 101 93 90 89 85 79 74 72 69
7 6 5 5 5 8 22 49 77 95 100 101 102 102 101 100 98 99 101 96 78 53 32 37 65 86 83 81 90 96 92 81 67 58 62 76 88 93 90 84 80 76 74 76 80 89 98 102 102 104 106 106 104 100 94 88 86 83 79 76 75 76 76
8 7 5 5 5 5 13 35 64 89 100 100 101 102 100 98 96 95 99 102 95 74 46 35 54 83 91 85 86 93 97 99 95 84 74 76 85 95 99 97 91 88 88 91 93 97 101 104 103 101 101 97 92 87 84 84 87 87 88 89 90 89 88
8 8 6 6 6 4 7 21 47 76 96 101 100 98 94 91 91 92 96 102 105 97 74 50 47 70 90 91 87 92 97 99 100 100 95 89 86 88 93 98 99 99 98 98 99 101 105 106 102 97 94 92 88 87 88 90 92 95 99 101 98 92 88
9 8 7 6 6 5 5 10 28 56 84 97 99 97 91 85 83 86 92 98 102 104 98 78 57 58 78 92 90 91 99 102 102 103 105 102 97 92 89 90 94 98 101 102 103 103 105 105 102 98 96 94 93 93 94 92 90 91 95 95 88 81 79
11 9 8 7 6 5 5 6 13 33 60 82 91 91 87 83 81 81 84 88 93 100 106 103 82 62 64 81 91 92 97 103 104 103 104 105 104 101 98 94 90 89 91 95 99 102 103 103 101 99 98 95 92 93 93 89 85 84 84 81 77 73 74
12 10 8 8 7 6 5 5 7 15 37 65 83 86 83 84 86 85 82 83 90 97 103 106 101 80 63 68 84 92 94 100 104 103 101 102 103 103 102 103 101 96 90 87 86 89 92 94 94 96 97 95 93 92 91 88 86 84 82 80 77 76 78
13 11 9 8 7 6 6 5 5 8 23 51 78 88 89 91 94 93 89 89 94 98 99 101 103 94 73 63 72 86 92 96 100 102 100 101 104 104 101 101 104 104 101 95 89 84 83 82 82 83 85 87 89 93 94 93 92 88 85 83 83 82 85
14 12 11 9 8 7 6 6 5 6 13 36 69 92 99 102 102 97 92 93 97 100 100 99 99 96 82 64 61 76 89 93 95 99 100 100 102 102 100 100 101 103 104 104 100 92 86 83 80 78 75 73 74 78 84 89 93 95 95 96 94 92 92
18 13 11 10 8 8 7 5 5 6 7 21 53 88 105 108 106 98 90 91 96 100 102 100 97 94 85 68 57 66 83 91 93 96 98 99 99 98 98 100 102 102 104 106 107 102 95 90 87 84 82 79 75 71 70 70 74 78 83 89 94 95 97
24 16 12 11 8 8 8 6 5 6 6 10 33 69 97 107 104 95 87 85 91 98 102 100 96 92 86 72 59 60 72 84 89 92 94 96 98 99 100 101 101 101 102 104 107 107 103 99 95 91 89 88 87 85 82 78 74 71 68 69 72 76 81
34 21 14 12 10 8 7 7 6 5 6 6 14 40 74 96 100 92 83 79 85 95 99 97 94 94 91 79 64 57 61 70 77 81 85 91 95 99 102 101 100 101 102 102 104 106 105 103 102 100 97 94 91 90 91 94 94 90 84 80 76 71 69
46 32 20 14 12 9 8 8 7 6 6 6 7 18 44 72 86 87 80 76 81 91 96 95 93 94 96 90 75 60 55 60 66 69 73 80 87 93 98 100 99 100 101 102 105 107 105 102 103 105 105 104 101 96 95 99 102 100 96 93 93 89 84

ECMWFFLT1_500_rhum_060.txt.gz
RH
35 21 13 10 10 14 21 26 27 26 25 24 24 24 24 25 24 23 22 21 21 26 36 45 50 49 43 38 34 31 26 22 22 23 23 19 11 5 9 23 44 65 83 97 103 102 97 88 80 73 66 59 51 47 47 49 51 61 77 90 97 100 102
45 26 15 11 10 11 17 25 28 29 26 25 26 26 26 26 27 26 24 23 23 24 30 42 52 52 46 41 37 35 33 28 24 22 21 23 20 13 7 8 21 42 65 85 98 102 102 99 92 84 77 70 64 57 52 50 50 51 55 65 75 84 91
58 35 19 12 10 8 13 21 28 31 29 27 27 28 28 27 28 30 28 26 25 24 27 37 49 54 50 44 41 38 37 35 30 25 21 21 22 21 16 10 8 19 40 66 87 99 102 102 100 97 90 83 75 69 63 57 55 54 52 53 56 58 62
71 46 26 14 10 8 9 15 24 31 33 29 28 29 31 30 30 33 33 30 28 26 27 31 43 54 56 50 46 43 40 39 37 34 28 22 20 21 22 19 12 9 17 38 65 88 99 101 102 101 99 96 89 81 74 69 63 60 58 55 55 56 57
83 60 36 19 11 8 7 10 16 27 34 34 30 30 32 32 31 35 38 36 32 29 27 28 34 48 58 58 53 48 46 44 43 43 39 32 25 20 19 22 21 15 10 15 34 62 85 96 101 103 102 101 99 94 88 82 75 70 66 62 60 59 60
91 72 48 27 15 9 6 7 10 19 31 36 34 31 33 35 33 34 41 43 39 34 31 28 28 37 52 62 61 56 52 49 48 48 49 44 36 27 21 20 22 21 16 12 14 31 57 79 91 99 103 103 102 100 97 94 89 84 78 73 70 67 64
97 82 60 36 20 12 7 6 7 12 23 34 37 34 32 36 36 35 39 46 46 40 36 33 29 29 39 56 67 66 60 56 53 52 54 54 48 39 30 23 21 22 22 19 14 14 27 47 67 82 93 101 103 102 100 99 98 96 93 88 82 79 76
101 90 70 47 28 15 9 6 6 8 14 23 35 39 35 34 38 37 38 46 50 47 42 39 36 31 30 41 59 71 70 64 59 56 56 57 56 49 41 32 25 22 22 23 21 18 17 23 37 52 68 84 94 101 101 100 101 101 100 99 96 91 90
103 96 80 59 35 17 9 7 6 6 7 11 24 40 41 35 36 40 39 43 50 53 49 44 42 40 34 32 42 60 74 75 68 62 58 58 59 57 50 43 35 28 26 25 25 25 24 21 22 28 38 51 64 78 90 96 100 102 100 100 101 99 96
102 100 88 68 41 20 10 8 6 6 6 6 13 32 45 41 35 38 41 42 48 55 55 49 46 46 42 37 34 40 57 73 79 74 63 56 56 59 57 52 45 39 33 30 28 28 28 28 27 25 25 29 34 44 57 69 81 92 97 100 101 100 97
101 101 94 76 48 23 11 8 7 7 6 5 6 19 40 48 40 35 39 44 47 54 58 55 51 48 47 45 41 36 38 52 70 80 76 63 53 52 55 57 54 50 44 39 35 32 31 31 31 32 30 28 27 28 30 37 47 59 72 84 92 95 95
100 102 98 82 56 29 13 9 9 8 7 6 5 8 26 48 51 40 35 41 48 53 58 60 56 52 50 49 46 43 39 38 45 60 73 74 65 53 48 49 52 54 52 49 46 43 40 37 36 36 36 34 32 31 29 27 27 31 38 48 61 73 81
100 101 99 88 64 35 17 10 10 10 7 6 6 5 11 34 54 52 38 36 44 51 54 59 60 56 54 53 49 47 45 41 38 40 48 60 67 64 56 48 45 45 46 47 48 47 45 44 43 42 41 40 37 35 34 32 28 26 25 25 29 38 47
101 101 99 92 72 44 22 13 12 11 8 6 6 5 5 16 41 58 51 37 38 47 49 51 57 59 57 56 53 50 47 45 43 41 39 41 47 54 57 56 51 47 44 41 40 41 41 41 41 41 40 39 38 36 35 35 33 30 28 25 23 22 23
101 101 100 95 80 53 29 18 15 11 9 7 5 5 5 7 23 50 63 51 38 42 47 46 49 57 60 57 54 50 48 46 44 43 43 42 42 42 44 48 50 50 49 46 41 39 40 39 38 37 37 35 33 33 31 31 30 29 28 27 25 22 21
101 101 100 97 86 63 38 25 18 12 9 8 6 5 6 6 11 33 65 72 52 39 42 45 46 51 55 57 56 51 47 45 43 42 41 43 46 47 45 44 44 44 46 48 47 43 43 46 47 46 45 43 38 34 32 30 28 27 26 25 24 23 22
100 101 101 99 90 70 48 32 22 15 10 7 7 6 5 6 7 21 58 87 80 56 42 39 43 47 48 51 53 52 48 44 42 42 40 39 41 44 49 52 47 42 40 42 47 50 50 54 59 59 58 56 50 42 37 32 29 28 28 25 23 23 22
100 101 101 100 94 76 56 40 27 17 10 8 8 6 5 6 7 17 47 81 95 87 67 48 39 40 43 47 49 49 47 43 41 40 37 37 38 39 48 58 56 48 42 38 39 48 55 61 67 70 67 64 60 54 44 35 32 32 31 27 25 23 22
100 101 100 100 96 82 62 47 33 19 11 9 8 6 6 5 6 16 38 62 84 99 97 81 61 46 40 41 42 43 41 40 39 37 35 36 35 38 52 64 61 51 44 37 34 40 52 63 72 78 77 72 68 63 53 42 38 39 37 33 32 31 27
100 101 101 100 98 86 67 51 37 22 11 9 8 6 6 6 6 13 29 48 70 92 104 102 93 81 65 52 45 41 37 36 36 35 36 36 36 45 62 66 57 48 42 36 33 35 44 59 73 81 83 79 74 70 64 53 48 51 51 45 43 45 42
100 101 101 100 99 90 72 55 41 25 13 10 9 7 6 5 6 11 21 38 65 91 104 104 103 105 99 87 76 66 55 48 44 41 41 40 42 59 73 65 52 47 42 37 36 36 41 55 71 81 84 83 80 77 73 65 59 62 64 55 51 55 57
101 101 102 101 99 93 78 59 43 28 15 10 9 8 6 5 6 8 15 34 63 91 104 103 100 103 106 105 101 93 80 70 62 56 53 47 50 70 81 70 54 47 44 46 47 43 45 54 68 81 86 83 82 82 78 71 66 70 74 66 59 61 64
100 101 102 101 100 96 82 65 46 29 17 12 9 8 6 5 6 6 11 32 63 89 102 102 98 99 104 107 106 100 92 85 77 72 64 52 55 75 86 77 62 49 46 54 55 49 50 56 65 78 85 83 80 81 80 74 69 74 80 73 64 63 64
100 100 101 101 101 97 86 69 50 31 18 12 10 9 7 5 6 6 9 28 61 91 104 103 98 97 102 106 104 99 96 93 88 81 67 52 56 78 88 85 74 57 49 56 59 52 53 59 66 76 82 82 81 79 77 75 72 77 83 75 64 60 59
100 100 100 101 101 99 88 72 54 35 20 12 10 9 7 6 6 5 8 24 55 87 104 106 101 98 99 102 101 97 96 97 94 83 63 50 59 77 86 90 90 73 58 59 63 59 55 58 67 76 81 81 80 76 76 77 76 81 85 77 67 63 60
100 100 100 101 101 100 91 75 57 38 21 12 10 10 7 6 6 5 6 18 43 75 101 110 105 97 94 96 98 97 96 98 98 84 60 49 63 79 84 90 97 90 75 69 70 69 66 61 62 70 76 79 78 75 75 77 78 82 84 80 76 73 71
100 99 100 101 102 101 94 79 61 42 24 14 11 10 8 7 6 5 6 13 31 63 94 108 105 96 91 91 92 93 94 97 101 92 66 49 60 80 86 87 95 99 92 83 78 79 80 75 68 66 68 70 71 73 74 75 76 80 85 88 88 85 81
100 100 100 100 102 102 96 83 66 46 27 17 12 9 8 8 6 5 6 9 23 53 85 103 106 101 97 93 91 91 93 96 103 104 83 56 54 74 86 86 92 101 102 97 90 85 84 85 83 81 78 72 69 70 73 74 76 79 86 94 96 93 91
100 100 100 100 101 102 98 87 71 50 29 17 13 9 8 8 7 6 6 8 17 40 69 91 102 106 105 102 99 96 96 98 103 109 100 74 57 66 82 86 89 98 105 105 102 96 90 88 89 90 90 87 82 78 75 74 75 79 86 92 94 96 100
100 100 100 100 101 102 99 90 77 56 33 17 12 11 8 7 7 6 6 7 12 26 48 74 96 106 106 104 102 98 97 100 103 106 108 95 72 64 75 84 86 93 102 106 106 103 99 95 94 95 95 95 95 91 85 81 81 82 86 88 88 94 101
100 100 100 100 101 102 101 94 82 65 42 21 12 11 9 7 7 7 6 6 8 16 33 62 90 103 103 101 101 100 98 100 102 103 108 107 90 72 71 80 86 90 96 102 103 103 101 98 98 101 103 101 101 98 93 89 88 88 88 88 88 92 99
100 100 100 100 100 102 102 97 86 73 54 32 16 11 9 8 7 7 7 6 7 12 25 49 76 96 103 103 104 105 101 100 102 103 106 110 104 86 72 75 85 90 94 98 101 101 101 100 99 100 104 105 105 103 100 96 93 92 93 93 93 94 99
100 100 100 100 100 101 102 99 90 78 65 46 25 13 10 9 8 7 7 6 7 11 19 36 61 86 102 105 105 107 105 101 100 103 104 107 108 99 81 73 80 89 93 97 100 100 101 102 103 101 101 103 103 103 103 102 100 98 97 96 96 97 100
100 100 100 101 100 100 102 101 94 83 72 57 36 19 11 9 8 8 8 7 7 9 14 26 47 72 92 102 104 104 103 99 97 99 102 103 106 105 93 77 75 84 91 95 100 102 102 103 105 104 101 100 101 101 102 102 101 101 101 100 100 100 100
100 100 100 100 100 100 102 103 98 87 76 65 47 27 15 12 10 9 8 7 7 8 10 17 33 55 76 90 95 95 94 92 92 95 98 99 100 104 101 87 77 80 89 96 101 105 106 105 104 102 98 97 98 99 100 100 99 98 98 99 101 101 101
100 100 100 100 100 100 101 103 102 92 81 72 58 39 23 16 13 10 9 8 7 7 8 11 20 38 58 73 81 83 83 84 88 92 96 97 96 99 102 96 83 80 88 98 103 106 107 107 105 102 97 94 94 96 98 100 100 98 97 98 99 99 99

ECMWFFLT1_500_rhum_063.txt.gz
RH
82 83 84 88 92 92 92 91 83 70 52 32 16 8 7 7 10 14 18 19 22 23 24 23 21 17 13 12 15 20 23 22 21 19 17 17 19 19 19 18 17 15 14 14 15 16 18 24 30 37 46 56 66 73 79 85 91 91 91 94 95 97 101
85 86 87 90 95 95 93 92 87 75 58 38 21 10 7 6 8 13 18 20 22 24 25 25 24 21 16 13 15 20 24 25 24 23 21 19 17 17 18 19 19 17 15 13 14 14 14 17 20 25 34 45 56 65 71 76 83 86 86 91 94 91 93
88 89 88 92 99 99 95 93 90 81 64 43 26 13 7 6 7 11 17 20 22 25 27 27 26 24 20 15 15 18 24 29 30 29 27 25 22 19 17 18 19 19 18 16 14 13 13 13 15 18 24 34 46 58 67 73 79 83 82 86 93 89 84
89 92 92 95 100 102 99 95 93 87 71 49 30 15 7 6 7 9 16 21 23 25 28 29 28 27 24 19 16 16 21 30 36 36 34 31 28 24 21 18 17 18 19 19 17 14 12 11 13 15 17 25 37 48 59 69 77 83 83 83 87 89 85
90 94 95 97 100 101 101 98 96 92 79 56 35 18 8 6 6 7 14 22 26 26 28 30 30 29 27 23 20 17 18 25 36 41 40 36 32 28 25 22 19 18 18 19 20 18 15 11 9 12 16 21 30 42 53 62 71 82 87 85 85 87 87
90 97 98 100 101 101 101 100 97 95 86 63 39 20 9 7 6 6 11 21 28 28 28 31 32 31 29 28 25 21 18 21 31 41 44 41 36 31 28 26 23 20 18 17 19 20 20 15 10 9 15 24 32 40 51 59 65 75 86 91 89 88 89
91 99 101 102 103 100 100 101 99 99 92 69 42 24 12 8 7 6 8 18 28 31 29 31 33 33 32 31 29 27 23 20 25 38 47 45 41 36 31 29 27 24 21 19 18 19 21 20 16 9 11 24 38 44 51 61 67 71 79 88 93 92 91
93 101 101 102 103 101 100 101 100 101 98 77 50 30 17 9 7 6 7 15 26 32 32 32 32 35 35 34 33 32 29 24 23 31 44 50 47 42 37 34 32 29 27 24 20 19 20 22 22 15 8 16 35 51 58 65 75 80 81 84 89 92 92
95 102 102 100 102 102 100 100 100 101 100 85 61 38 20 10 8 7 7 11 21 30 35 35 32 34 38 37 36 37 35 31 26 26 36 48 53 51 45 40 38 36 34 32 28 23 20 20 24 23 15 9 22 49 67 70 76 87 93 92 90 89 89
99 104 103 100 101 102 100 100 100 100 99 89 70 45 23 11 8 8 7 8 15 24 33 38 36 34 39 40 38 40 40 37 33 29 29 39 51 57 54 49 46 44 42 40 38 34 27 21 21 25 25 16 12 30 59 78 83 86 93 100 101 96 90
103 104 103 100 101 101 100 100 100 100 99 92 77 52 27 13 10 9 7 6 11 16 25 36 40 36 38 42 41 42 43 41 39 36 31 31 41 55 62 59 53 49 48 47 45 43 38 30 23 22 26 27 19 17 34 64 85 93 95 98 103 105 101
103 103 103 100 100 100 100 100 100 99 99 94 82 58 30 14 10 9 7 6 8 10 16 31 44 40 36 41 43 43 45 46 43 41 38 34 33 43 58 67 63 54 50 51 52 49 45 40 33 26 24 26 27 23 21 35 60 84 97 101 101 103 104
102 102 102 100 100 101 100 101 100 97 97 96 85 62 33 15 10 10 8 6 6 7 10 25 45 47 38 37 42 44 46 49 48 43 42 41 37 36 44 58 67 65 55 50 53 55 53 47 40 34 28 25 27 28 25 23 32 51 75 91 99 101 102
100 101 101 99 100 101 100 100 99 94 95 98 89 65 37 16 10 10 9 6 6 6 7 18 40 53 46 37 39 45 47 49 50 47 43 44 44 41 39 43 54 64 63 55 51 53 55 54 49 42 35 29 28 29 29 28 25 28 41 60 80 93 99
101 100 100 100 100 100 100 100 99 96 97 100 92 69 40 18 11 11 9 7 6 6 6 12 29 50 57 45 36 42 50 50 49 49 47 46 46 45 44 42 43 50 58 61 57 53 51 52 53 52 47 40 35 31 31 31 30 27 26 32 45 63 79
101 100 100 100 100 100 100 100 99 98 100 101 94 73 41 18 12 11 9 8 6 5 6 8 16 38 58 58 43 37 47 53 50 49 49 48 48 46 44 45 43 42 46 53 57 57 54 50 49 50 52 50 47 43 39 36 33 31 28 26 27 32 44
100 100 100 100 100 100 100 100 98 97 99 102 95 74 43 20 13 12 10 9 7 6 6 6 9 22 43 62 58 41 39 49 51 49 49 49 48 47 44 42 42 41 40 41 46 51 54 53 51 48 47 48 48 48 48 46 42 38 34 31 29 26 26
100 100 100 99 100 100 100 100 97 95 98 102 96 76 45 21 14 12 10 9 6 6 6 5 8 12 25 54 72 59 41 39 45 49 49 47 47 47 47 44 41 39 38 38 38 41 45 49 51 50 49 47 45 44 45 46 46 45 41 37 35 34 32
100 100 99 100 100 100 100 100 97 95 99 103 98 77 47 23 15 13 10 9 7 6 6 5 7 10 18 41 71 81 64 44 37 42 46 47 45 45 46 46 42 39 37 36 35 36 40 44 47 48 49 49 48 45 42 41 41 42 41 40 39 40 39
100 100 99 100 100 100 100 100 98 97 101 104 99 79 50 26 15 12 10 9 7 6 6 6 6 10 20 36 63 90 93 72 49 39 38 42 44 45 45 44 40 38 36 34 34 33 35 41 46 47 47 48 50 51 48 45 44 43 40 37 37 38 38
100 100 99 100 100 100 100 100 99 99 102 104 99 81 52 26 14 12 11 9 8 6 6 7 7 11 21 37 60 86 101 98 81 60 43 38 39 41 43 40 36 36 34 33 34 34 36 42 46 47 45 43 45 52 55 53 50 50 47 41 38 39 39
99 100 100 99 100 100 100 100 100 99 101 102 99 83 53 25 13 12 11 9 8 7 5 6 9 12 19 36 62 87 100 102 100 89 72 56 47 44 46 44 40 38 37 36 37 39 45 52 51 47 44 40 37 43 53 58 56 54 54 50 44 43 44
99 100 100 99 100 100 100 101 100 99 100 102 100 83 52 24 13 12 12 10 8 7 6 6 8 12 18 33 62 92 103 101 100 100 95 86 76 72 71 67 58 51 48 47 44 47 58 63 57 48 42 38 34 32 41 56 62 58 57 56 53 51 51
99 100 100 99 100 100 100 101 99 98 99 101 100 84 52 24 13 12 11 10 8 6 6 6 7 10 16 31 60 92 106 106 103 102 99 96 95 94 92 85 73 65 61 54 48 57 72 71 59 50 44 38 34 29 30 49 68 68 61 59 60 59 58
100 100 100 99 100 100 100 100 100 99 99 101 100 83 52 24 14 12 11 10 9 6 5 6 7 9 14 30 61 92 106 107 105 100 96 98 99 97 94 87 80 74 66 54 51 64 79 77 62 54 49 43 39 34 31 44 68 77 69 62 62 62 62
99 100 100 99 99 100 100 100 100 100 100 102 98 82 54 27 15 13 12 10 8 7 6 6 6 9 16 32 60 89 103 105 103 101 102 104 102 96 92 89 85 77 63 53 56 70 83 83 72 60 57 55 50 44 42 49 66 80 78 70 66 64 66
99 99 100 100 99 100 100 99 100 100 101 102 97 81 59 35 19 13 12 10 8 6 6 6 6 10 19 32 55 85 101 103 102 102 105 106 103 97 93 91 85 71 56 54 66 79 86 88 81 71 70 69 61 52 50 56 68 79 82 77 70 66 71
100 99 100 100 100 100 100 100 100 100 101 102 96 81 63 42 24 15 12 10 9 7 6 6 7 12 21 31 50 78 98 103 100 99 101 103 102 98 96 93 82 63 51 59 77 86 88 89 89 87 85 81 71 60 55 60 71 78 78 75 72 70 75
100 99 100 100 99 100 100 100 100 100 101 102 95 81 65 45 26 17 13 10 8 7 6 6 8 13 22 31 45 68 90 100 99 96 95 98 99 97 96 96 85 62 49 62 83 92 89 87 91 97 97 91 84 74 61 57 66 73 73 72 71 72 77
100 99 100 100 99 99 100 100 100 100 101 102 97 83 64 44 26 17 13 11 9 7 6 7 8 11 17 26 42 63 84 95 98 96 94 93 95 96 97 99 93 71 51 59 83 96 93 87 88 95 99 97 93 85 71 61 61 64 66 68 70 71 75
100 100 100 100 99 99 100 100 100 100 100 102 100 86 64 42 26 16 13 12 10 8 7 6 7 10 16 26 41 60 77 89 95 97 95 91 91 94 95 97 98 86 63 56 76 95 98 90 86 90 95 96 94 89 82 74 69 65 63 62 63 67 70
100 100 100 100 99 100 100 100 100 100 100 102 100 89 67 44 27 17 14 14 11 8 7 7 7 9 15 24 36 53 71 85 91 93 92 89 87 89 91 92 96 96 80 63 68 89 99 95 88 88 92 95 95 90 87 84 80 77 73 68 65 65 67
100 100 100 99 100 100 100 100 100 100 100 102 101 92 71 47 29 20 16 15 12 9 7 7 7 8 12 19 31 49 69 85 92 92 90 87 83 83 87 89 92 99 95 77 67 78 96 100 94 90 92 96 97 93 90 88 86 84 83 81 79 78 76
99 99 100 99 100 100 99 100 100 100 100 101 102 96 77 52 34 25 18 14 12 10 8 7 7 8 11 16 26 44 65 83 93 96 93 91 87 84 87 91 93 98 101 92 74 73 88 101 99 94 94 98 101 98 92 87 87 87 86 85 86 87 88
99 99 100 100 100 100 100 100 100 100 100 101 102 99 83 59 40 29 20 15 13 12 9 8 7 7 9 13 21 35 55 74 89 97 97 95 93 89 88 92 95 98 102 100 85 73 80 96 102 99 98 100 104 105 98 88 84 84 85 86 86 87 89
99 99 100 101 100 100 100 100 100 100 100 101 102 101 88 67 48 33 22 16 14 13 10 9 9 7 8 11 17 28 45 64 81 95 100 98 95 92 90 91 96 100 102 102 92 77 75 87 99 102 101 102 105 107 104 96 88 83 82 83 85 86 88

ECMWFFLT1_500_rhum_066.txt.gz
RH
37 35 32 28 26 25 23 20 25 40 59 75 80 81 86 87 84 86 82 64 41 22 10 7 8 10 11 12 14 17 19 19 19 17 14 10 9 10 11 12 13 15 19 23 25 28 38 55 69 76 80 85 90 93 96 98 100 100 100 100 100 99 99
39 37 34 31 29 28 25 22 25 38 59 79 87 85 89 91 86 88 88 71 47 26 13 7 8 9 10 12 14 16 18 20 20 19 16 13 10 10 12 13 13 14 16 20 23 25 27 37 52 63 71 76 81 86 91 95 97 99 100 100 100 100 100
42 39 37 34 32 31 28 24 26 38 60 83 92 90 91 94 89 88 91 79 54 31 15 8 7 8 9 12 14 16 18 20 22 21 19 15 12 10 12 14 14 15 15 16 20 24 25 26 35 47 57 66 71 77 83 89 93 96 98 99 100 100 100
44 42 40 37 35 33 31 28 28 40 63 88 97 94 94 96 91 89 93 87 63 36 18 9 7 8 9 11 15 16 17 20 22 23 22 18 14 11 11 14 16 16 17 16 16 20 24 24 25 31 42 52 60 65 72 80 86 90 93 96 97 98 99
46 44 41 39 38 36 34 34 36 47 71 94 103 99 96 97 93 91 94 93 73 43 20 10 8 7 8 11 16 17 17 20 23 24 24 21 16 13 11 14 17 18 18 18 17 17 21 24 24 24 30 39 47 55 62 69 76 83 87 90 92 95 97
48 45 44 42 40 39 40 43 49 65 86 102 106 103 99 98 94 91 94 96 82 51 23 11 8 7 7 10 16 18 18 20 24 25 26 24 20 15 13 13 17 20 21 21 21 20 19 22 24 23 25 30 37 45 52 59 66 72 77 81 85 89 92
52 46 47 50 49 48 51 57 69 87 101 107 107 103 100 99 96 92 93 98 90 59 27 12 8 7 7 9 14 19 20 20 24 27 27 26 23 19 15 14 16 21 25 25 25 24 22 22 23 24 24 25 30 36 42 50 57 61 65 70 75 80 84
60 50 54 65 66 64 68 77 89 100 104 106 106 101 99 100 98 94 95 100 96 66 32 14 9 7 7 8 11 18 23 23 24 28 29 28 27 23 19 15 15 21 27 29 30 29 27 25 24 25 25 24 26 29 34 40 47 51 56 59 63 68 74
68 59 68 83 85 84 89 94 100 103 101 103 103 99 98 98 97 96 97 103 101 73 37 17 10 7 7 7 9 16 24 26 26 28 31 31 30 28 24 19 16 19 27 33 34 32 30 28 26 25 25 24 24 25 28 33 37 42 47 50 53 57 61
81 71 83 97 97 98 102 102 102 102 100 101 101 97 96 96 97 99 99 103 104 80 44 21 11 8 8 6 7 14 23 27 28 29 32 32 33 32 29 24 19 18 25 34 38 37 34 32 28 26 25 25 24 24 25 27 30 34 39 42 46 48 52
96 87 94 102 101 101 103 102 101 101 100 100 101 98 95 94 98 101 100 103 105 85 50 25 12 8 8 7 7 12 20 27 30 31 32 34 35 36 34 30 24 19 22 32 42 44 40 36 32 28 26 25 25 24 24 24 25 27 30 34 37 41 45
103 99 99 100 101 101 101 101 101 100 99 101 101 96 94 95 99 103 102 103 106 89 55 27 14 9 8 8 6 9 16 27 32 32 33 36 38 39 39 36 30 23 21 27 40 49 48 42 37 33 29 27 25 25 24 24 24 24 25 27 30 33 37
102 103 100 99 100 101 100 100 101 100 100 101 99 94 92 96 101 104 103 103 105 92 59 29 15 10 9 8 6 7 13 24 33 34 34 37 40 42 43 41 37 31 25 25 35 47 54 51 44 38 34 31 29 27 26 25 24 24 23 24 25 28 31
102 104 102 100 100 100 100 100 100 100 100 100 98 93 91 95 101 104 103 102 105 94 62 32 16 10 10 9 6 6 10 18 30 35 35 36 40 44 45 44 42 37 32 29 32 40 52 58 54 46 40 37 35 32 29 27 25 25 24 24 24 25 26
101 103 102 100 100 100 100 100 100 99 99 100 99 94 91 96 102 104 102 102 104 94 65 35 18 11 10 10 7 6 7 11 23 33 37 37 40 45 47 47 46 42 38 37 35 34 43 56 62 57 48 42 42 40 36 33 29 27 26 26 26 26 26
101 101 101 101 100 100 100 100 100 99 99 100 100 95 92 98 103 103 101 101 103 94 68 38 19 12 10 10 7 6 6 7 14 28 37 38 39 43 47 49 50 46 43 41 38 35 36 45 57 63 58 50 45 44 44 41 36 33 29 27 27 27 28
102 101 100 101 100 100 100 100 100 100 99 100 101 96 94 100 103 102 100 101 102 94 71 40 19 12 11 10 8 7 6 5 9 21 35 40 38 41 47 51 51 49 46 43 41 39 37 38 44 54 60 58 52 47 47 47 45 41 35 30 28 28 29
102 102 100 100 101 100 100 100 100 99 99 101 101 98 96 100 103 101 100 101 101 94 72 42 19 12 11 10 8 7 6 6 7 15 32 42 41 39 45 51 52 51 49 46 43 42 40 39 39 42 48 55 56 53 51 49 49 47 43 37 32 29 28
101 102 99 99 101 100 99 100 100 98 98 102 101 97 98 101 102 101 100 101 101 92 71 42 19 12 12 11 9 8 6 6 6 12 28 45 47 41 42 48 51 51 50 48 45 43 42 40 40 40 41 45 50 53 53 52 50 49 48 45 39 34 30
99 100 100 100 101 101 100 100 100 96 97 102 102 99 100 101 101 101 101 101 100 90 67 39 19 12 12 11 9 8 6 6 6 10 23 43 54 49 42 43 47 49 50 49 46 44 43 41 40 40 41 42 43 46 49 51 51 50 49 48 45 41 37
100 99 100 100 100 101 101 100 100 97 97 103 104 101 101 100 99 101 101 101 100 86 60 34 18 13 12 11 9 8 7 6 7 9 18 39 63 67 51 40 42 46 48 48 48 45 44 43 41 39 38 39 41 43 46 49 49 48 48 48 48 46 44
100 99 100 100 99 101 101 100 100 99 99 103 103 101 101 100 99 101 101 101 99 82 52 29 17 14 13 12 10 8 6 6 7 9 16 36 68 86 74 51 40 42 45 46 46 46 45 44 43 40 37 36 36 38 42 45 46 46 45 44 45 46 47
100 100 100 100 99 101 100 100 101 99 99 103 102 100 100 99 100 101 101 102 96 74 46 26 18 15 13 12 10 7 6 6 6 9 18 35 64 94 99 78 54 41 40 42 43 43 43 43 42 40 38 37 36 35 36 38 41 44 45 44 43 43 45
100 100 100 99 100 101 100 100 100 99 100 101 100 99 100 99 100 101 101 102 92 68 43 27 18 15 13 12 10 7 6 6 6 11 24 41 63 90 106 103 84 59 42 38 38 38 39 39 39 39 39 38 36 35 35 36 37 41 45 47 47 44 43
99 100 100 100 100 100 100 101 100 99 99 99 98 99 100 99 100 100 101 101 89 66 44 27 17 14 13 12 9 7 6 6 9 18 32 48 67 86 99 106 105 89 64 46 39 37 36 37 41 45 46 44 41 39 40 40 41 43 44 45 46 45 43
100 100 100 100 99 98 100 102 100 97 96 98 99 99 100 100 100 100 101 100 86 65 44 26 15 13 13 11 9 7 6 7 12 24 38 51 70 88 95 99 106 105 90 71 55 47 48 55 61 62 58 53 49 47 46 45 45 46 46 44 42 41 42
100 100 100 100 99 98 101 102 98 93 94 98 101 101 100 101 101 100 101 98 84 64 42 24 14 13 13 11 9 7 6 8 15 28 41 54 72 89 97 101 106 107 103 92 79 72 75 80 81 75 67 61 55 50 49 48 48 48 48 46 41 37 36
100 99 99 100 100 100 102 100 95 92 94 99 102 102 101 101 101 100 101 96 81 60 38 22 15 14 12 10 8 7 6 8 16 29 44 58 74 89 97 101 103 104 105 102 96 91 90 88 83 77 71 63 54 51 52 52 52 53 53 49 43 37 34
94 96 100 101 100 99 98 94 92 94 97 100 102 101 100 101 100 99 101 96 79 55 34 21 16 14 12 10 8 7 7 7 14 30 47 62 77 89 95 97 99 101 105 105 102 96 90 86 83 78 69 58 53 56 59 57 58 62 63 58 50 45 40
92 99 102 101 98 96 95 94 95 98 100 100 101 100 100 100 99 100 102 94 73 50 33 22 16 14 13 11 8 7 7 7 13 30 49 65 79 91 97 98 100 104 105 104 101 96 90 86 81 72 60 53 57 63 65 64 66 72 76 74 66 58 51
98 101 102 101 98 96 96 97 98 101 101 100 100 100 100 100 99 101 102 91 69 47 33 23 17 14 13 10 8 7 7 7 13 31 51 67 81 94 100 101 103 106 106 104 100 97 92 84 75 63 53 51 60 69 70 69 72 79 87 91 86 73 65
102 103 101 99 99 99 98 100 103 104 102 100 100 100 100 100 100 102 103 91 69 48 33 23 17 15 13 10 8 7 7 7 13 29 50 67 81 93 100 102 102 103 104 103 100 98 95 83 68 58 54 54 61 71 75 74 77 85 94 101 101 90 78
92 98 100 100 101 100 100 102 104 104 101 100 100 100 100 100 100 101 101 91 70 49 32 22 17 15 13 10 8 7 7 7 11 23 44 65 81 92 98 99 99 99 99 99 97 98 98 89 71 58 57 60 63 71 78 79 80 87 94 100 105 102 89
83 88 96 101 102 101 101 102 103 102 100 100 100 100 100 100 99 99 99 91 72 50 33 22 17 16 13 10 8 7 7 7 9 18 37 60 79 91 97 99 99 98 96 96 95 97 99 96 81 64 59 63 67 72 79 82 82 85 90 96 103 106 98
95 94 98 102 103 100 99 99 101 102 100 99 100 100 100 100 99 99 99 91 74 54 36 24 18 16 14 11 9 7 7 7 9 15 29 50 72 88 96 98 98 96 94 93 94 95 96 98 91 76 64 64 70 74 79 83 83 84 86 91 97 102 102
105 103 103 103 103 101 97 95 98 100 100 99 100 100 100 100 100 101 101 92 76 57 40 28 21 17 14 12 10 8 7 7 9 13 23 39 59 77 89 95 94 92 91 90 91 93 95 96 97 89 75 67 70 77 81 84 85 84 84 86 91 96 99